Regional Weather Roundup
Issued by NWS Huntsville, AL

Home | Current Version | Previous Version | Text Only | Print | Product List | Glossary On
Versions: 1 2 3 4 5 6 7 8 9 10 11 12 13 14 15 16 17 18 19 20 21 22 23 24 25 26 27 28 29 30 31 32 33 34 35 36 37 38 39 40 41 42 43 44 45 46 47 48 49 50
000
ASUS44 KHUN 221310
RWRHUN

WEATHER ROUNDUP FOR THE TENNESSEE VALLEY
NATIONAL WEATHER SERVICE HUNTSVILLE AL
800 AM CDT TUE AUG 22 2017

ALZ001>004-221400-
NORTHWEST ALABAMA

CITY           SKY/WX    TMP DP  RH WIND       PRES   REMARKS
COURTLAND HCN    N/A     73 N/A N/A CALM        N/A
RUSSELLVILLE     N/A     75 N/A N/A MISG        N/A
SHOALS AIRPORT SUNNY     77  73  87 CALM      30.10R
SHOALS TVA RES   N/A     75 N/A N/A MISG        N/A
$$

ALZ005>007-016-221400-
NORTH CENTRAL ALABAMA

CITY           SKY/WX    TMP DP  RH WIND       PRES   REMARKS
CULLMAN AG STN   N/A     73 N/A N/A CALM        N/A
DECATUR AP     SUNNY     77  75  93 S3        30.10S
HUNTSVILLE AP  SUNNY     77  75  93 SE5       30.10S
MERIDIANVILLE    N/A     73  70  88 CALM      30.11S
REDSTONE ARSN  SUNNY     77  73  88 S6        30.10R
VINEMONT AP    FAIR      76  72  87 S3        30.14R
$$

ALZ008>010-221400-
NORTHEAST ALABAMA

CITY           SKY/WX    TMP DP  RH WIND       PRES   REMARKS
ALBERTVILLE    SUNNY     77  77 100 CALM      30.12S
FORT PAYNE     SUNNY     72  68  88 CALM      30.13R
SCOTTSBORO HCN   N/A     72 N/A N/A MISG        N/A
$$

TNZ076-096-097-221400-
SOUTHEASTERN MIDDLE TENNESSEE

CITY           SKY/WX    TMP DP  RH WIND       PRES   REMARKS
TULLAHOMA      SUNNY     73  70  88 CALM      30.13S
WINCHESTER     SUNNY     77  72  83 SE3       30.12S
$$

...SURROUNDING SITES...

CITY           SKY/WX    TMP DP  RH WIND       PRES   REMARKS
ATLANTA        SUNNY     78  73  84 CALM      30.14R
ANNISTON       SUNNY     75  73  93 CALM      30.13R
BIRMINGHAM     SUNNY     79  73  82 CALM      30.14R
CHATTANOOGA    SUNNY     77  71  82 CALM      30.13R
DALTON         NOT AVBL
GADSDEN        PTSUNNY   74  73  97 CALM      30.13R
GOLDEN TRNGL   SUNNY     79  70  73 CALM      30.05R
HALEYVILLE     FAIR      77  75  93 S3        30.13S
JACKSON TN     MOSUNNY   79  75  87 SW9       30.06R
MEMPHIS        MOSUNNY   79  74  84 VRB6      30.06R
NASHVILLE      MOSUNNY   80  72  76 SW5       30.08R
OXFORD MS      FAIR      77  73  88 SW5       30.09R
ROME           SUNNY     77  74  90 CALM      30.12R
SAVANNAH       SUNNY     81  73  78 SW5       30.06S
SELMER         SUNNY     77  73  88 VRB5      30.07R
TUPELO         SUNNY     78  72  81 CALM      30.07R
TUSCALOOSA     SUNNY     77  77 100 S3        30.10R FOG
$$

...GULF COAST WEATHER...

CITY           SKY/WX    TMP DP  RH WIND       PRES   REMARKS
GULFPORT       SUNNY     79  74  84 NE6       30.07R
PASCAGOULA     SUNNY     78  75  90 N3        30.08R
MOBILE         MOSUNNY   79  75  87 NE5       30.10R
GULF SHORES    SUNNY     79  79 100 NE5       30.08R
PENSACOLA      PTSUNNY   82  77  84 NE7       30.08R HX  90
DESTIN         PTSUNNY   83  76  79 E8        30.09R HX  91
PANAMA CITY    SUNNY     80  76  87 NE5       30.09R
APPALACHICOLA  SUNNY     80  80 100 NE8       30.08R
$$




USA.gov is the U.S. government's official web portal to all federal, state and local government web resources and services.